Safari Half Marathon 2014 - 21.1km Walk
Pos.Cat. Pos.No.SurnameNameSexCat.ClubTimeDiff.
117539DAMONELEANORFemale50-59DWARS1:12:48-
217533SADIEFRANKIEMaleOpenWELLING1:41:36+28:48
31664HAUPTFLEISCHDANIEMale70+WELLING1:50:02+37:14
417731JACOBSFREDDIEMale50-59NAMAQ1:53:32+40:44
517770SLATERMIKEMale60+VIRGINAC2:03:45+50:57
627690VENTERALBERTMaleOpenTEMP2:04:58+52:10
727647VISAGIECHERONFemale50-59TEMP2:11:12+58:24
827697PAPIERADAMMale50-59RWFLWP2:18:04+1:05:16
937687COETZEEPIETER-ANDREMaleOpenTEMP2:19:34+1:06:46
1047716MEHLOMAKHULUMZIWABDILEMaleOpenTEMP2:20:07+1:07:19
11228LAURITERENCEMale60+SPARTAN2:20:24+1:07:36
1237583ANTHONYKENNETHMale60+SPARTAN2:24:40+1:11:52
1357729FRITZHENRYMaleOpenTYGER2:26:05+1:13:17
1417624HINESDENNISMale40-49SPARTAN2:27:20+1:14:32
1537578SOUTHGATEARTHURMale50-59SPARTAN2:27:45+1:14:57
164697CHILDJOHNMale60+ABSA2:30:07+1:17:19
1747586PETERSENWALTERMale50-59RWFLWP2:32:40+1:19:52
1817771HENDRIKSEELIZKAFemale40-49BRACKEN2:33:30+1:20:42
1917689COETZEEELZAANFemaleOpenTEMP2:35:21+1:22:33
2057686COETZEELEONMale50-59WELLING2:35:21+1:22:33
2167503EVANSMICHELMale50-59RWFLWP2:35:43+1:22:55
2277592LAUMANNMANFREDMale50-59TEMP2:36:50+1:24:02
2327523SIEBRITSKRIGEMale40-49TEMP2:38:41+1:25:53
2437732WILLIAMSCLIVEMale40-49K-WAY VOB2:38:59+1:26:11
2537625COETZEEERINAFemale50-59TEMP2:39:09+1:26:21
2627648HARDRES-WILLIAMSGAVINMale70+RWFLWP2:41:26+1:28:38
2717641AVERCAROL-ANNFemale60+RWFLWP2:42:00+1:29:12
2837639AVERBRIANMale70+RWFLWP2:42:01+1:29:13
2927556MALANHANLIFemaleOpenRWFLWP2:42:01+1:29:13
3027702WILLEMSEGERTRUDEFemale40-49VELOCITY2:42:01+1:29:13
3157742THOMPSONARMONDMale60+SPARTAN2:42:32+1:29:44
328901NELKOBUSMale50-59SANLAMC2:42:35+1:29:47
3347658GROENEWALDFRANSMale40-49TEMP2:43:32+1:30:44
3437748CAROLPICKFemale40-49SPARTAN2:43:54+1:31:06
3547632PETERSENMICHELLEFemale40-49TEMP2:44:13+1:31:25
3657582BRANDTFRANCOISMale40-49FHOEK2:45:38+1:32:50
3757622CAROLISSENESTELLEFemale40-49CELTIC2:46:17+1:33:29
389951PRETORIUSRUDIEMale50-59PAARL2:46:21+1:33:33
3941098PRETORIUSTERSIAFemale50-59PAARL2:46:21+1:33:33
4067661GEORGEMALGORZATAFemale40-49WCOAST2:46:24+1:33:36
4167727WILLIAMSHENRYMale40-49TEMP2:47:06+1:34:18
4237566O'BRIENJANINEFemaleOpenTEMP2:47:17+1:34:29
4377657HILDEBRANDJACKYFemale40-49TEMP2:47:18+1:34:30
4447643L�TZJORIKAFemaleOpenTEMP2:48:23+1:35:35
45107644L�TZKOLIEMale50-59TEMP2:48:23+1:35:35
46117640HERMANUSJOSEPHMale50-59TEMP2:49:15+1:36:27
4767532COGILLRICHARDMale60+SPARTAN2:49:55+1:37:07
4827537RANDALLCARETHAFemale60+TEMP2:50:59+1:38:11
49127775SWARTZKEITHMale50-59DEFWP2:50:59+1:38:11
5077663DAVIDSEFRANKLINMale40-49TEMP2:51:04+1:38:16
5187570IMMELMANTHEOMale40-49TEMP2:51:37+1:38:49
5287569IMMELMANLIZETTEFemale40-49TEMP2:51:38+1:38:50
53137730ADENDORFFREUBENMale50-59TEMP2:51:59+1:39:11
54147555SCHONKENPIETERMale50-59TEMP2:52:13+1:39:25
5597577SOUTHGATEBENITAFemale40-49SPARTAN2:52:18+1:39:30
5657646NICOLIDAFemaleOpenTEMP2:52:26+1:39:38
57107543JOUBERTANTOINETTEFemale40-49RWFLWP2:52:42+1:39:54
5857589RIEKERTWILMAFemale50-59RWFLWP2:52:46+1:39:58
5947550KIRBYDAVEMale70+SPARTAN2:53:03+1:40:15
60157524MORKELJOHNMale50-59TEMP2:53:04+1:40:16
6157507BENNETTMIKEMale70+EDGE2:53:20+1:40:32
62167715FRANSIESFRANSMale50-59TEMP2:53:35+1:40:47
6367634MARAISCHRISTAFemale50-59SWART2:53:44+1:40:56
64117599VAN GEEMSBARBARAFemale40-49RWFLWP2:53:46+1:40:58
6537660PATS-NOUGUESLORETTAFemale60+RWFLWP2:53:46+1:40:58
6667723NELIVANMaleOpenTEMP2:53:53+1:41:05
6767651LOUWGERIDAFemaleOpenTEMP2:54:08+1:41:20
687671ISAACSJANNIEMale60+TEMP2:54:32+1:41:44
6997691NELANTONMale40-49RWFLWP2:54:40+1:41:52
7077656LOURENSDELCIAFemale50-59TEMP2:54:46+1:41:58
71107655MOSTERTRIAANMale40-49TEMP2:54:46+1:41:58
7267580MURDOCKEDWARDMale70+LIONS2:55:09+1:42:21
73117559DANIELSLABANMale40-49TEMP2:55:52+1:43:04
7487637VAN WYKJOHANNESMale60+STRAG2:55:54+1:43:06
7587521GAINESMARIAFemale50-59RWFLCGA2:56:48+1:44:00
7697514GROEPETONIFemale50-59INTOUCH2:59:12+1:46:24
7777525ADAMSRONALDMale70+SPARTAN2:59:16+1:46:28
7847545ARRISONREGINAFemale60+TEMP2:59:34+1:46:46
7977542VAN GRAANDESIREEFemaleOpenTEMP3:00:06+1:47:18
8087596JOUBERTMARINELFemaleOpenTEMP3:00:26+1:47:38
8197677KOEGELENBERGMADREFemaleOpenESKOMWP3:00:31+1:47:43
82127749MONARENGGERALDINEFemale40-49NEDBOL3:00:59+1:48:11
83137501OLIVIERSUZANNEFemale40-49TEMP3:02:06+1:49:18
84127558WILLIAMSJAVINMale40-49TEMP3:02:13+1:49:25
85147575VAN ROMBURGHJOHANNAFemale40-49TEMP3:02:23+1:49:35
86137557SWARTRIAANMale40-49PAARL3:03:07+1:50:19
8787612STERBANJOHNMale70+RWFLWP3:03:36+1:50:48
88107736VAN DER SPUYLEANAFemale50-59RWFLWP3:04:22+1:51:34
8997607LIEBENBERGHERMIASMale70+ORAK3:04:34+1:51:46
90157757TRUTERCATHARINAFemale40-49TEMP3:04:59+1:52:11
91107679DU TOITGERALDINEFemaleOpenTEMP3:05:06+1:52:18
92117664KAPPAMANDAFemale50-59TEMP3:05:13+1:52:25
93167760KOERIESFRANCISFemale40-49LIBLAGN3:05:56+1:53:08
9457631FOURIEMARICAFemale60+TEMP3:06:09+1:53:21
9597541COMPIONJACOBUSMale60+TEMP3:06:13+1:53:25
96177788GROBBELAARJOHANMale50-59TEMP3:06:22+1:53:34
97177659MAARTMARIONETTEFemale40-49PAARL3:06:47+1:53:59
98117675PIETERSELYNETTEFemaleOpenTEMP3:06:53+1:54:05
99187672NAIDOOROSALINEFemale40-49VELOCITY3:07:13+1:54:25
100127502NELLJOLENEFemale50-59TEMP3:07:14+1:54:26
101147693DANIELSDERICKMale40-49TEMP3:07:24+1:54:36
102187718JAMESMARKMale50-59TEMP3:07:34+1:54:46
103127526BRANDTJUANITAFemaleOpenFHOEK3:07:57+1:55:09
104107574WRENSCHMALCOMMale60+BELL3:09:14+1:56:26
1056769GELDENHUYSDOLLAFemale60+CERES3:09:24+1:56:36
106157692WILLIAMSCHARLTONMale40-49PAARL3:09:37+1:56:49
107137701APOLLESNAOMIFemale50-59TEMP3:10:16+1:57:28
108197700APOLLESKEITHMale50-59TEMP3:10:16+1:57:28
10917602WALLISELEANORFemale70+VIRGINAC3:10:20+1:57:32
110147703VERMEULENELIZABETHFemale50-59TEMP3:10:35+1:57:47
111157522TAYLORFLORENCEFemale50-59TEMP3:11:03+1:58:15
112137737VENTRDOREFemaleOpenTEMP3:11:38+1:58:50
113167728GREENJOANIEFemale50-59TEMP3:11:53+1:59:05
11477571VAN DER MERWEPETROFemale60+NBMCWP3:12:20+1:59:32
115177584GROENEWALDDANIELIAFemale50-59NBMCWP3:12:23+1:59:35
116181023VAN DER MERWEJOANIEFemale50-59TEMP3:12:25+1:59:37
117197722SWEETNAMANNELINEFemale50-59TEMP3:12:33+1:59:45
118207676WELKOMEVELYNFemale50-59VELOCITY3:12:40+1:59:52
119217673KAMFERLAETITIAFemale50-59VELOCITY3:12:40+1:59:52
120207517VAN DER MERWEABIEMale50-59TEMP3:12:42+1:59:54
121227551SMITRENEEFemale50-59TEMP3:12:47+1:59:59
122117642VISSERBARENDMale60+TEMP3:13:53+2:01:05
123237615BIGGSLETTIEFemale50-59TEMP3:14:05+2:01:17
124167572TAYLORPAULMale40-49TEMP3:14:15+2:01:27
125197680MATTHYSEFREDELENEFemale40-49TEMP3:14:30+2:01:42
126207711SIWABELMARIEFemale40-49TEMP3:14:36+2:01:48
127147666SMITHTREASUREFemaleOpenLAINGS3:14:41+2:01:53
12887635VISSERSANDRAFemale60+TEMP3:15:01+2:02:13
129177544MARAISDARRYLMale40-49CSBOL3:15:42+2:02:54
1302815HAMMANMARIETJIEFemale70+TEMP3:16:09+2:03:21
131247529MUNNIKVALERIEFemale50-59ESKOMWP3:16:12+2:03:24
132157508DYKEBRONWENFemaleOpenCELTIC3:16:21+2:03:33
133217609MATTHEWSBRIANMale50-59TEMP3:16:26+2:03:38
134187743DANIELSJOHNMale40-49TEMP3:16:53+2:04:05
135217740BROMMVALENCIAFemale40-49TEMP3:17:48+2:05:00
13697530VISSERESTELLEFemale60+EDGE3:18:06+2:05:18
137227753FOURIEGERHARDMale50-59HARTENBOS3:19:08+2:06:20
138257594MATTHEWSJENNYFemale50-59TEMP3:19:31+2:06:43
139167595OLIVIERSTEFANIEFemaleOpenTEMP3:20:53+2:08:05
140177698MZINYATIPETROFemaleOpenTEMP3:22:31+2:09:43
141187755PRETORIUSELMARIFemaleOpenTEMP3:22:33+2:09:45
142127670HIGHAMJAMESMale60+TEMP3:22:34+2:09:46
143227669HIGHAMNAOMIFemale40-49TEMP3:22:34+2:09:46
14477605SCHEEPERSREUBENMaleOpenTEMP3:23:17+2:10:29
1451910576MANUELRAPHAELMale40-49EERSTE3:24:20+2:11:32
14617568VAN WYKVIRGINIAFemaleJuniorsTEMP3:25:06+2:12:18
147197618GOUWSWILNAFemaleOpenBRACKEN3:25:06+2:12:18
148267565VAN WYKJACQUELINEFemale50-59TEMP3:25:06+2:12:18
149107598GOLIATHDORISFemale60+TEMP3:25:30+2:12:42
150207573VERGOTINERAYNETTEFemaleOpenTEMP3:25:31+2:12:43
151217758OMOTOLAMILLINAHFemaleOpenTEMP3:25:32+2:12:44
152137547NEPGENJEANMale60+KOWIE3:25:34+2:12:46
153277554SCHONKENMARINAFemale50-59TEMP3:26:25+2:13:37
154287553VAN COLLERURSULAFemale50-59TEMP3:26:25+2:13:37
155227763CROOMENICOLEFemaleOpenTEMP3:26:33+2:13:45
15617762GEORGEKYLEMaleJuniorsTEMP3:26:34+2:13:46
157297611NELCHRISTINEFemale50-59TEMP3:26:49+2:14:01
158307546HAMESMARYFemale50-59TEMP3:26:50+2:14:02
15987528CAROLUSXAVIERMaleOpenTEMP3:27:13+2:14:25
16097717DU PREEZMORNEMaleOpenTEMP3:27:14+2:14:26
161237527KRYNAUWHELENAFemaleOpenTEMP3:27:18+2:14:30
162147597GOLIATHJOHNMale60+TEMP3:27:42+2:14:54
163237653PINTOCONNIEFemale40-49TEMP3:27:53+2:15:05
164207684DU TOITANDRIESMale40-49TEMP3:27:54+2:15:06
165237685MULLERGERHARDUSMale50-59RWFLWP3:27:55+2:15:07
166317621HAVENGABEVERLEYFemale50-59TEMP3:27:55+2:15:07
167327535FARELOTHERESIAFemale50-59RWFLWP3:27:55+2:15:07
168247534FARELOJOHNMale50-59RWFLWP3:27:56+2:15:08
169247769DE GRAADMARIETJIEFemaleOpenTEMP3:28:12+2:15:24
170257608PRETORIUSELIZABETHFemaleOpenTEMP3:29:09+2:16:21
171337563DEETLEFSELSAFemale50-59TEMP3:29:09+2:16:21
172347751FOURIEHETTIEFemale50-59HARTENBOS3:29:28+2:16:40
173117548NEPGENCAROLFemale60+KOWIE3:29:46+2:16:58
174127633JOOSTEDOROTHEAFemale60+ELGRAB3:30:17+2:17:29
175137561HANEKOMJOHANNAFemale60+TEMP3:30:29+2:17:41
176357564FONTINITHELMAFemale50-59TEMP3:30:34+2:17:46
177147606FORTUNEOMARFemale60+TEMP3:31:45+2:18:57
178217591WILLIAMSDONOVANMale40-49TEMP3:32:35+2:19:47
179367590PIJOOSGLORIAFemale50-59TEMP3:32:35+2:19:47
180247759NTSHUNTSHEMIRANDAFemale40-49DEFWP3:32:41+2:19:53
181257713EXSTEENGREGORYMale50-59TYGER3:33:40+2:20:52
182157627THOMSONANNEFemale60+TEMP3:33:44+2:20:56
183227654VAN ROOYENMATTHEWMale40-49TEMP3:35:52+2:23:04
184237667VAN ROOYENISAKMale40-49TEMP3:36:00+2:23:12
185257761EDWARDSILLONAFemale40-49TEMP3:36:12+2:23:24
186167645BRANNEKAMPERFRANCESFemale60+RWFLWP3:36:15+2:23:27
187267696DE MONKJENNIFERFemale40-49TEMP3:37:47+2:24:59
188277695MAYJERECIAFemale40-49TEMP3:37:47+2:24:59
189287593PRINSANDRIANAFemale40-49TEMP3:37:54+2:25:06
19037818GRIFFITHSENGELAFemale50-59EDGE3:38:22+2:25:34
191267739LESLEYBERNICEFemaleOpenTEMP3:38:33+2:25:45
192177504GELDENHUYSHESMAFemale60+TEMP3:39:19+2:26:31
193387671DAVADOSSLUCIAFemale50-59TEMP3:39:33+2:26:45
194397681PIETERSENMYNTJIEFemale50-59TEMP3:39:35+2:26:47
195247721PUMALUIGIMale40-49RCSGUGS3:40:11+2:27:23
196407766JACOBSMAGRIETAFemale50-59GROOT3:41:28+2:28:40
197277726HEYNSCHRISTOLINEFemaleOpenTEMP3:41:31+2:28:43
198287616HEYNSMARIJKEFemaleOpenTEMP3:41:58+2:29:10
199297617CROUSENID-ANNFemaleOpenTEMP3:42:00+2:29:12
200297735PRINSLOOHANNELIEFemale40-49TEMP3:42:21+2:29:33
201107779PAULSEJASONMaleOpenTEMP3:43:22+2:30:34
202187741MANUELSELIZABETHFemale60+TEMP3:44:14+2:31:26
203197516WALBRUGHGLYNISFemale60+TEMP3:45:55+2:33:07
204267694LUCASEVERTMale50-59TEMP3:47:52+2:35:04
205257709CLAASSENJOHANMale40-49TEMP3:48:22+2:35:34
206307708PIENAARFRANCISKAFemale40-49TEMP3:48:22+2:35:34
207267725BARNARDGIDEONMale40-49TEMP3:48:55+2:36:07
208317724BARNARDJAKKIEFemale40-49TEMP3:48:55+2:36:07
209277720PAULSENDIAANMale40-49TEMP3:50:54+2:38:06
210277619BOYLETERRYMale50-59TEMP3:51:07+2:38:19
211157626THOMSONGARRYMale60+WCOAST3:51:10+2:38:22
212117776KLEINSMITHEDWINMaleOpenTEMP3:51:41+2:38:53
213307777KLEINSMITHLIZANNEFemaleOpenTEMP3:51:41+2:38:53
214127567VAN WYKJACQUINMaleOpenTEMP3:54:31+2:41:43
215287719ABRAHAMSJOSEPHMale50-59TEMP3:54:45+2:41:57
216317754DU PLOOYKATHERINEFemaleOpenTEMP3:55:45+2:42:57
217327629JANUARIEMICHELLEFemaleOpenTEMP3:58:08+2:45:20
218337628LETHINAGERALDINEFemaleOpenTEMP3:58:08+2:45:20
219327579MANTERBRONWYNFemale40-49TEMP4:26:34+3:13:46
220137581MANTERGARTHMaleOpenTEMP4:26:35+3:13:47